Location: Unspecified
(48.7670°N, 0.0000°E)
Time: 04:10:27
(UTC+00:00)

Transit 4A - All Passes

Search period start: 25 June 2019 00:00
Search period end: 05 July 2019 00:00
Orbit: 862 x 983 km, 66.8° (Epoch: 24 June)

Date Brightness Start Highest point End Pass type
(mag) Time Alt. Az. Time Alt. Az. Time Alt. Az.
25 Jun - 06:00:58 10° SE 06:04:51 17° ESE 06:08:47 10° ENE daylight
25 Jun - 07:43:57 10° SSW 07:50:17 82° ESE 07:56:45 10° NE daylight
25 Jun - 09:31:50 10° W 09:37:23 30° NW 09:43:01 10° NNE daylight
25 Jun - 11:22:11 10° NW 11:25:59 16° N 11:29:48 10° NNE daylight
25 Jun - 13:10:39 10° NNW 13:15:04 19° NNE 13:19:26 10° ENE daylight
25 Jun - 14:57:01 10° NNW 15:03:10 45° NE 15:09:10 10° ESE daylight
25 Jun - 16:43:34 10° NW 16:49:38 46° WSW 16:55:31 10° S daylight
26 Jun - 06:08:55 10° SSE 06:13:52 25° ESE 06:18:54 10° NE daylight
26 Jun - 07:53:19 10° SW 07:59:39 76° NW 08:06:08 10° NNE daylight
26 Jun - 09:41:57 10° W 09:47:08 25° NNW 09:52:21 10° NNE daylight
26 Jun - 11:32:18 10° NW 11:35:57 15° N 11:39:36 10° NNE daylight
26 Jun - 13:20:06 10° NNW 13:24:55 22° NNE 13:29:42 10° ENE daylight
26 Jun - 15:06:20 10° NNW 15:12:42 59° NE 15:18:52 10° SE daylight
26 Jun - 16:53:12 10° NW 16:58:47 33° WSW 17:04:13 10° S daylight
27 Jun - 06:17:21 10° S 06:22:58 35° ESE 06:28:40 10° NE daylight
27 Jun - 08:02:52 10° SW 08:09:07 57° NW 08:15:29 10° NNE daylight
27 Jun - 09:52:09 10° WNW 09:56:56 21° NNW 10:01:43 10° NNE daylight
27 Jun - 11:42:15 10° NNW 11:45:55 15° N 11:49:33 10° NE daylight
27 Jun - 13:29:27 10° NNW 13:34:43 25° NNE 13:39:53 10° E daylight
27 Jun - 15:15:42 10° NW 15:22:08 78° NE 15:28:23 10° SE daylight
27 Jun - 17:03:02 10° WNW 17:07:51 23° WSW 17:12:35 10° SSW daylight
28 Jun - 06:26:06 10° S 06:32:08 49° ESE 06:38:17 10° NE daylight
28 Jun - 08:12:36 10° WSW 08:18:39 44° NW 08:24:48 10° NNE daylight
28 Jun - 10:02:26 10° WNW 10:06:47 19° NNW 10:11:10 10° NNE daylight
28 Jun - 11:52:02 10° NNW 11:55:52 16° N 11:59:41 10° NE daylight
28 Jun - 13:38:47 10° NNW 13:44:26 31° NE 13:49:58 10° E daylight
28 Jun - 15:25:05 10° NW 15:31:30 79° WSW 15:37:43 10° SSE daylight
28 Jun - 17:13:14 10° WNW 17:16:52 16° WSW 17:20:25 10° SW daylight
29 Jun - 04:53:22 10° SE 04:56:11 13° E 04:59:00 10° ENE daylight
29 Jun - 06:35:07 10° SSW 06:41:23 68° ESE 06:47:47 10° NE daylight
29 Jun - 08:22:29 10° WSW 08:28:16 35° NW 08:34:07 10° NNE daylight
29 Jun - 10:12:42 10° NW 10:16:42 17° NNW 10:20:42 10° NNE daylight
29 Jun - 12:01:38 10° NNW 12:05:48 17° NNE 12:09:55 10° NE daylight
29 Jun - 13:48:07 10° NNW 13:54:05 39° NE 13:59:56 10° ESE daylight
29 Jun - 15:34:32 10° NW 15:40:47 57° WSW 15:46:50 10° SSE daylight
29 Jun - 17:25:11 10° W 17:25:46 10° W 17:26:21 10° WSW daylight
30 Jun - 05:00:48 10° SSE 05:05:09 20° ESE 05:09:33 10° ENE daylight
30 Jun - 06:44:20 10° SSW 06:50:43 90° NW 06:57:12 10° NE daylight
30 Jun - 08:32:31 10° W 08:37:57 28° NNW 08:43:26 10° NNE daylight
30 Jun - 10:22:54 10° NW 10:26:39 16° N 10:30:23 10° NNE daylight
30 Jun - 12:11:08 10° NNW 12:15:41 20° NNE 12:20:11 10° ENE daylight
30 Jun - 13:57:26 10° NNW 14:03:40 50° NE 14:09:44 10° ESE daylight
30 Jun - 15:44:05 10° NW 15:49:59 41° WSW 15:55:43 10° S daylight
01 Jul - 05:08:57 10° SSE 05:14:11 28° ESE 05:19:31 10° NE daylight
01 Jul - 06:53:47 10° SW 07:00:07 68° NW 07:06:34 10° NNE daylight
01 Jul - 08:42:41 10° W 08:47:43 24° NNW 08:52:47 10° NNE daylight
01 Jul - 10:32:59 10° NW 10:36:36 15° N 10:40:13 10° NE daylight
01 Jul - 12:20:32 10° NNW 12:25:31 23° NNE 12:30:26 10° ENE daylight
01 Jul - 14:06:46 10° NNW 14:13:09 66° NE 14:19:22 10° SE daylight
01 Jul - 15:53:47 10° NW 15:59:07 29° WSW 16:04:19 10° SSW daylight
02 Jul - 05:17:31 10° S 05:23:19 39° ESE 05:29:14 10° NE daylight
02 Jul - 07:03:24 10° WSW 07:09:37 52° NW 07:15:54 10° NNE daylight
02 Jul - 08:52:55 10° WNW 08:57:32 20° NNW 09:02:10 10° NNE daylight
02 Jul - 10:42:52 10° NNW 10:46:34 15° N 10:50:15 10° NE daylight
02 Jul - 12:29:54 10° NNW 12:35:18 27° NNE 12:40:35 10° E daylight
02 Jul - 14:16:09 10° NW 14:22:34 87° NE 14:28:49 10° SE daylight
02 Jul - 16:03:43 10° WNW 16:08:10 20° WSW 16:12:31 10° SSW daylight
03 Jul - 05:26:22 10° SSW 05:32:31 55° ESE 05:38:47 10° NE daylight
03 Jul - 07:13:12 10° WSW 07:19:10 40° NW 07:25:13 10° NNE daylight
03 Jul - 09:03:12 10° WNW 09:07:25 18° NNW 09:11:39 10° NNE daylight
03 Jul - 10:52:35 10° NNW 10:56:31 16° NNE 11:00:25 10° NE daylight
03 Jul - 12:39:13 10° NNW 12:45:00 33° NE 12:50:37 10° E daylight
03 Jul - 14:25:33 10° NW 14:31:55 70° WSW 14:38:04 10° SSE daylight
03 Jul - 16:14:13 10° WNW 16:17:08 14° W 16:20:01 10° SW daylight
04 Jul - 03:52:57 10° SE 03:56:27 15° ESE 04:00:00 10° ENE daylight
04 Jul - 05:35:28 10° SSW 05:41:48 76° ESE 05:48:15 10° NE daylight
04 Jul - 07:23:08 10° W 07:28:49 32° NW 07:34:32 10° NNE daylight
04 Jul - 09:13:27 10° NW 09:17:20 16° N 09:21:13 10° NNE daylight
04 Jul - 11:02:09 10° NNW 11:06:25 18° NNE 11:10:40 10° ENE daylight
04 Jul - 12:48:32 10° NNW 12:54:37 42° NE 13:00:31 10° ESE daylight
04 Jul - 14:35:03 10° NW 14:41:10 50° WSW 14:47:06 10° S daylight
